Location: Göttingen
(51.5413°N, 9.9158°E)
Time: 17:47:40
(UTC+02:00)

Tiros 1 despin weight - Pass Details

Date: 28 May 2022
Orbit: 591 x 639 km, 48.2° (Epoch: 04 July)

Event Time Altitude Azimuth Distance (km) Brightness Sun altitude
Rises 23:25:31 0° 277° (W) 2,848 ? -12.9°
Reaches altitude 10° 23:28:00 10° 267° (W) 1,937 ? -13.0°
Maximum altitude 23:31:54 31° 205° (SSW) 1,048 ? -13.3°
Enters shadow 23:33:52 22° 162° (SSE) 1,323 ? -13.4°
